This demonstration page uses our WeatherBlox Daily Observations layout. Learn more.

39.92423, -83.80882

Hourly Observations for July 25, 2018

Temp ( °F °C ) Dew Point ( °F °C ) Humidity (%) Winds ( mph kmh ) Pressure ( in mb ) Visibility ( mi km ) Precip ( " mm )
12:56 am 00:56 Clear 68 20 67 19.4 96 96 SW 3 6 29.97 1015 10 16.0934 0 0
1:56 am 01:56 Clear 67 19.4 67 19.4 100 100 SW 3 6 29.96 1015 10 16.0934 0 0
2:56 am 02:56 Clear 67 19.4 67 19.4 100 100 Calm 29.96 1014 10 16.0934 0 0
3:56 am 03:56 Clear 69 20.6 68 20 96 96 WNW 7 11 29.95 1014 10 16.0934 0 0
4:56 am 04:56 Clear 68 20 68 20 100 100 WNW 6 9 29.95 1014 10 16.0934 0 0
5:56 am 05:56 Clear 66 18.9 66 18.9 100 100 NW 5 7 29.96 1015 8 12.87472 0 0
6:56 am 06:56 Partly Cloudy with Mist and Fog 65 18.3 65 18.3 100 100 WNW 3 6 29.96 1015 3 4.82802 0 0
7:56 am 07:56 Sunny 68 20 67 19.4 96 96 NW 5 7 29.97 1015 7 11.26538 0 0
8:56 am 08:56 Sunny 71 21.7 68 20 90 90 N 6 9 29.98 1015 10 16.0934 0 0
9:56 am 09:56 Sunny 76 24.4 68 20 77 77 NW 6 9 29.98 1015 10 16.0934 0 0
10:56 am 10:56 Sunny 78 25.6 69 20.6 74 74 N 6 9 29.99 1016 10 16.0934 0 0
11:56 am 11:56 Sunny 79 26.1 70 21.1 74 74 WNW 6 9 29.99 1016 10 16.0934 0 0
12:56 pm 12:56 Sunny 79 26.1 70 21.1 74 74 NW 8 13 29.98 1015 10 16.0934 0 0
1:56 pm 13:56 Sunny 81 27.2 69 20.6 67 67 NW 10 17 29.97 1015 10 16.0934 0 0
2:56 pm 14:56 Sunny 83 28.3 69 20.6 63 63 WNW 13 20 29.96 1014 10 16.0934 0 0
3:56 pm 15:56 Sunny 83 28.3 65 18.3 55 55 NNW 9 15 29.95 1014 10 16.0934 0 0
4:56 pm 16:56 Sunny 84 28.9 64 17.8 51 51 NW 7 11 29.94 1014 10 16.0934 0 0
5:56 pm 17:56 Sunny 82 27.8 65 18.3 56 56 NNW 8 13 29.93 1014 10 16.0934 0 0
6:56 pm 18:56 Sunny 82 27.8 64 17.8 55 55 NW 12 19 29.93 1014 10 16.0934 0 0
7:56 pm 19:56 Sunny 80 26.7 65 18.3 60 60 NW 5 7 29.93 1014 10 16.0934 0 0
8:56 pm 20:56 Clear 74 23.3 66 18.9 76 76 WNW 3 6 29.94 1014 10 16.0934 0 0
9:56 pm 21:56 Clear 69 20.6 65 18.3 87 87 WSW 5 7 29.95 1014 10 16.0934 0 0
10:56 pm 22:56 Clear 69 20.6 65 18.3 87 87 W 3 6 29.96 1015 10 16.0934 0 0
11:56 pm 23:56 Clear 68 20 64 17.8 87 87 W 3 6 29.96 1015 10 16.0934 0 0

Powered by AerisWeather